#timestamp,LO_Frequency,Hit,StdDev 
1666414815.1,286046998.2,N
1666414835.9,286046997.2,N
1666414855.7,286046999.0,N
1666414875.5,286046999.6,N
1666414895.4,286046998.3,N
1666414915.2,286046998.9,N
1666414935.0,286046999.2,N
1666414935.9,286046999.2,N
1666414955.8,286046999.2,N
1666414975.6,286046999.0,N
1666414995.5,286046997.0,N
1666415015.3,286046999.5,N
1666415035.1,286046996.7,N
1666415055.9,286046999.2,N
1666415075.7,286046998.9,N
1666415095.5,286046996.6,N
1666415115.4,286046996.6,N
1666415135.2,286046999.6,N
1666415155.1,286046999.2,N
1666415156.0,286046999.2,N
1666415175.8,286046996.6,N
1666415195.6,286046996.7,N
1666415215.5,286046996.7,N
1666415235.3,286046997.4,N
1666415255.1,286046999.5,N
1666415275.9,286046996.5,N
1666415295.7,286046999.5,N
1666415315.6,286046996.9,N
1666415335.4,286046999.0,N
1666415355.2,286046999.0,N
1666415375.1,286046998.8,N
1666415376.0,286046998.8,N
1666415395.8,286046999.2,N
1666415415.7,286046999.6,N
1666415435.5,286046997.8,N
1666415455.3,286046996.6,N
1666415475.2,286046997.0,N
1666415495.0,286046999.2,N
1666415495.9,286046999.2,N
1666415515.7,286046997.3,N
1666415535.6,286046999.3,N
1666415555.4,286046998.6,N
1666415575.3,286046999.1,N
1666415595.1,286046999.1,N
1666415615.8,286046996.6,N
1666415635.7,286046996.6,N
1666415655.5,286046997.2,N
1666415675.4,286046994.9,Y
1666415695.2,286046996.8,P
1666415715.0,286046997.0,P
1666415715.9,286046997.0,P
1666415735.8,286046999.3,N
1666415755.6,286046998.8,N
1666415775.5,286046999.0,N
1666415795.3,286046998.6,N
1666415815.1,286046998.5,N
1666415835.9,286046999.0,N
1666415855.7,286047000.1,N
1666415875.5,286046999.9,N
1666415895.4,286047000.4,N
1666415915.2,286047000.6,N
1666415935.0,286047000.0,N
1666415936.0,286047000.0,N
1666415955.8,286047001.2,N
1666415975.6,286047000.2,N
1666415995.5,286047000.7,N
1666416015.3,286047000.9,N
1666416035.1,286047000.0,N
1666416055.9,286046998.7,N
1666416075.7,286046999.2,N
1666416095.6,286046998.6,N
1666416115.4,286046998.9,N
1666416135.2,286046998.4,N
1666416155.1,286047000.4,N
1666416156.0,286047000.4,N
1666416175.8,286047001.9,N
1666416195.7,286047001.3,N
1666416215.5,286047001.9,N
1666416235.3,286047001.8,N
1666416255.2,286047001.6,N
1666416275.9,286047002.1,N
1666416295.7,286047004.1,Y
1666416315.6,286047003.6,P
1666416335.4,286047004.0,N
1666416355.3,286047002.2,N
1666416375.1,286047001.3,N
1666416395.8,286047003.9,N
1666416415.7,286047003.6,N
1666416435.5,286047003.3,N
1666416455.4,286047004.4,Y
1666416475.2,286046998.1,P
1666416495.0,286046996.6,N
1666416495.9,286046996.6,N
1666416515.8,286046995.1,N
1666416535.6,286046998.0,N
1666416555.4,286046995.3,N
1666416575.3,286046997.1,N
1666416595.1,286046999.0,N
1666416615.9,286047000.5,N
1666416635.7,286047000.1,N
1666416655.5,286047002.7,N
1666416675.4,286047002.2,N
1666416695.2,286047001.5,N
1666416715.0,286047002.1,N
1666416716.0,286047002.1,N
1666416735.8,286047000.5,N
1666416755.6,286046998.2,N
1666416775.5,286046999.0,N
1666416795.3,286046998.8,N
1666416815.1,286046996.8,N
1666416835.9,286046996.5,N
1666416855.7,286046998.6,N
1666416875.6,286047000.6,N
1666416895.4,286047000.5,N
1666416915.2,286047001.0,N
1666416935.1,286047002.8,N
1666416936.0,286047002.8,N
1666416955.8,286047000.9,N
1666416975.6,286047000.9,N
1666416995.5,286047000.3,N
1666417015.3,286047000.0,N
1666417035.2,286046999.7,N
1666417055.9,286047004.3,N
1666417075.7,286047004.0,N
1666417095.6,286047001.4,N
1666417115.4,286047003.8,N
1666417135.2,286046999.9,N
1666417155.1,286047001.9,N
1666417156.0,286047001.9,N
1666417175.8,286047002.4,N
1666417195.7,286047002.8,N
1666417215.5,286047001.1,N
1666417235.3,286046998.4,N
1666417255.2,286047002.0,N
1666417275.0,286047002.7,N
1666417275.9,286047002.7,N
1666417295.8,286047000.6,N
1666417315.6,286047001.9,N
1666417335.4,286047004.2,N
1666417355.3,286047002.5,N
1666417375.1,286047002.8,N
1666417395.8,286047002.6,N
1666417415.7,286047004.1,N
1666417435.5,286047004.1,N
1666417455.4,286047003.6,N
1666417475.2,286047001.8,N
1666417495.0,286047001.4,N
1666417495.9,286047001.4,N
1666417515.8,286047001.9,N
1666417535.6,286047001.5,N
1666417555.5,286047004.4,Y
1666417575.3,286047001.0,P
1666417595.1,286046998.2,P
1666417615.9,286046998.3,N
1666417635.7,286047000.5,N
1666417655.5,286047000.7,N
1666417675.4,286047000.1,N
1666417695.2,286047002.3,N
1666417715.1,286046999.9,N
1666417716.0,286046999.9,N
1666417735.8,286047001.9,N
1666417755.6,286047004.4,Y
1666417775.5,286047001.5,P
1666417795.3,286047000.1,N
1666417815.2,286047000.6,N
1666417835.9,286046998.5,N
1666417855.7,286046998.4,N
1666417875.6,286047000.5,N
1666417895.4,286047000.0,N
1666417915.2,286047000.3,N
1666417935.1,286047002.8,N
1666417936.0,286047002.8,N
1666417955.8,286047002.4,N
1666417975.7,286047001.2,N
1666417995.5,286047000.9,N
1666418015.3,286047000.5,N
1666418035.2,286047001.0,N
1666418055.9,286047000.4,N
1666418075.7,286047000.0,N
1666418095.6,286047000.3,N
1666418115.4,286047002.8,N
1666418135.2,286047000.9,N
1666418155.1,286046999.1,N
1666418156.0,286046999.1,N
1666418175.8,286046998.2,N
1666418195.7,286047000.5,N
1666418215.5,286047000.1,N
1666418235.3,286047001.4,N
1666418255.2,286047000.0,N
1666418275.0,286046999.8,N
1666418275.9,286046999.8,N
1666418295.8,286047002.8,N
1666418315.6,286047000.9,N
1666418335.4,286046998.4,N
1666418355.3,286046999.9,N
1666418375.1,286047000.7,N
1666418395.8,286047000.9,N
